Rotterdam, Netherlands

1:07 PM CEST on May 29, 2017 (GMT +0200)
Rotterdam

Weather History for EHRD - September, 2012

Change the Weather History Date:

Wednesday, September 5, 2012

  Actual Average Record
Temperature  
Mean Temperature 60 °F -  
Max Temperature 66 °F 63 °F 88 °F (2013)
Min Temperature 54 °F 50 °F 44 °F (2010)
Degree Days  
Heating Degree Days 5    
Growing Degree Days 10 (Base 50)    
Moisture  
Dew Point 54 °F    
Average Humidity 80    
Maximum Humidity 100    
Minimum Humidity 50    
Precipitation  
Precipitation 0.00 in - - ()
Sea Level Pressure  
Sea Level Pressure 30.24 in    
Wind  
Wind Speed 4 mph ()    
Max Wind Speed 13 mph    
Max Gust Speed -    
Visibility 6.2 miles    
Events Fog    
Averages and records for this station are not official NWS values.
T = Trace of Precipitation, MM = Missing Value Source: Averaged Metar Reports

Daily Weather History Graph

Daily Weather History Graph

Search for Another Location

Airport or City:

Trip Planner

Search our weather history database for the weather conditions in past years. The results will help you decide how hot, cold, wet, or windy it might be!

Date:

Astronomy

Sep. 05, 2012 Rise Set
Actual Time 7:01 AM CEST 8:19 PM CEST
Civil Twilight 6:26 AM CEST 8:54 PM CEST
Nautical Twilight 5:43 AM CEST 9:36 PM CEST
Astronomical Twilight 4:57 AM CEST 10:22 PM CEST
Moon 9:53 PM CEST (9/5) 12:34 PM CEST (9/5)
Length of Visible Light 14h 27m
Length of Day
13h 18m
Waning Gibbous, 78% of the Moon is Illuminated
Sep 5
Waning Gibbous
Sep 8
Last Quarter
Sep 16
New
Sep 22
First Quarter
Sep 30
Full

Hourly Weather History & Observations

Time (CEST) Temp. Dew Point Humidity Pressure Visibility Wind Dir Wind Speed Gust Speed Precip Events Conditions
12:25 AM 60.8 °F 60.8 °F 100% 30.18 in 3.7 mi Variable 2.3 mph - N/A   Overcast
12:55 AM 62.6 °F 62.6 °F 100% 30.18 in 6.2 mi Variable 2.3 mph - N/A   Overcast
1:25 AM 62.6 °F 60.8 °F 94% 30.18 in 6.2 mi North 3.5 mph - N/A   Overcast
1:55 AM 60.8 °F 59.0 °F 94% 30.18 in 6.2 mi NNW 4.6 mph - N/A   Unknown
2:00 AM 60 °F 60 °F 100% 30.21 in 6 mi North 4.5 mph - -   Mist
2:25 AM 59.0 °F 59.0 °F 100% 30.18 in 3.7 mi Variable 2.3 mph - N/A   Unknown
2:55 AM 59.0 °F 59.0 °F 100% 30.18 in 3.7 mi NNW 3.5 mph - N/A   Unknown
3:25 AM 59.0 °F 59.0 °F 100% 30.18 in 3.1 mi Variable 2.3 mph - N/A   Partly Cloudy
3:55 AM 57.2 °F 57.2 °F 100% 30.18 in - NNW 3.5 mph - N/A   Mostly Cloudy
4:25 AM 57.2 °F 57.2 °F 100% 30.18 in - NNW 3.5 mph - N/A   Mostly Cloudy
4:55 AM 57.2 °F 57.2 °F 100% 30.18 in - Variable 2.3 mph - N/A   Scattered Clouds
5:00 AM 57 °F 57 °F 100% 30.20 in 0 mi NNW 2.2 mph - - Fog Fog
5:25 AM 57.2 °F 57.2 °F 100% 30.18 in - North 2.3 mph - N/A   Mostly Cloudy
5:55 AM 57.2 °F 57.2 °F 100% 30.18 in 1.2 mi North 2.3 mph - N/A   Mostly Cloudy
6:25 AM 57.2 °F 57.2 °F 100% 30.18 in 1.6 mi North 3.5 mph - N/A   Mist
6:55 AM 55.4 °F 55.4 °F 100% 30.18 in - NNE 2.3 mph - N/A   Mist
7:25 AM 57.2 °F 57.2 °F 100% 30.18 in 1.4 mi NE 3.5 mph - N/A   Mist
7:55 AM 57.2 °F 57.2 °F 100% 30.21 in 5.0 mi NNE 3.5 mph - N/A   Partly Cloudy
8:00 AM 57 °F 57 °F 100% 30.22 in 6 mi NNE 2.2 mph - - Fog Fog
8:25 AM 57.2 °F 57.2 °F 100% 30.21 in 6.2 mi Variable 1.2 mph - N/A   Overcast
8:55 AM 59.0 °F 55.4 °F 88% 30.21 in 6.2 mi North 3.5 mph - N/A   Scattered Clouds
9:25 AM 60.8 °F 55.4 °F 82% 30.21 in 6.2 mi NNE 5.8 mph - N/A   Unknown
9:55 AM 62.6 °F 53.6 °F 72% 30.21 in 6.2 mi NNE 5.8 mph - N/A   Mostly Cloudy
10:25 AM 64.4 °F 53.6 °F 68% 30.24 in 6.2 mi North 4.6 mph - N/A   Unknown
10:55 AM 64.4 °F 51.8 °F 64% 30.21 in 6.2 mi North 5.8 mph - N/A   Mostly Cloudy
11:00 AM 63 °F 52 °F 57% 30.24 in 12 mi NNW 6.7 mph - -   Partly Cloudy
11:25 AM 66.2 °F 51.8 °F 60% 30.24 in 6.2 mi NNW 6.9 mph - N/A   Scattered Clouds
11:55 AM 66.2 °F 51.8 °F 60% 30.24 in 6.2 mi NNW 8.1 mph - N/A   Mostly Cloudy
12:25 PM 66.2 °F 53.6 °F 64% 30.24 in 6.2 mi North 10.4 mph - N/A   Partly Cloudy
12:55 PM 64.4 °F 51.8 °F 64% 30.24 in 6.2 mi NNW 10.4 mph - N/A   Unknown
1:25 PM 64.4 °F 50.0 °F 59% 30.24 in 6.2 mi NNW 9.2 mph - N/A   Scattered Clouds
1:55 PM 64.4 °F 50.0 °F 59% 30.24 in 6.2 mi NNW 10.4 mph - N/A   Overcast
2:00 PM 65 °F 51 °F 50% 30.27 in 14 mi NNW 8.9 mph - -   Partly Cloudy
2:25 PM 64.4 °F 51.8 °F 64% 30.24 in 6.2 mi NNW 10.4 mph - N/A   Unknown
2:55 PM 64.4 °F 51.8 °F 64% 30.24 in 6.2 mi North 10.4 mph - N/A   Scattered Clouds
3:25 PM 64.4 °F 51.8 °F 64% 30.24 in 6.2 mi North 9.2 mph - N/A   Mostly Cloudy
3:55 PM 66.2 °F 53.6 °F 64% 30.27 in 6.2 mi NNW 12.7 mph - N/A   Mostly Cloudy
4:25 PM 64.4 °F 51.8 °F 64% 30.27 in 6.2 mi NNW 11.5 mph - N/A   Scattered Clouds
4:55 PM 64.4 °F 51.8 °F 64% 30.27 in 6.2 mi NNW 11.5 mph - N/A   Partly Cloudy
5:00 PM 65 °F 52 °F 53% 30.28 in 12 mi NNW 13.4 mph - -   Partly Cloudy
5:25 PM 62.6 °F 51.8 °F 68% 30.27 in 6.2 mi NNW 10.4 mph - N/A   Unknown
5:55 PM 62.6 °F 50.0 °F 63% 30.27 in 6.2 mi North 10.4 mph - N/A   Partly Cloudy
6:25 PM 62.6 °F 51.8 °F 68% 30.27 in 6.2 mi North 9.2 mph - N/A   Overcast
6:55 PM 62.6 °F 51.8 °F 68% 30.27 in 6.2 mi NNW 8.1 mph - N/A   Partly Cloudy
7:25 PM 60.8 °F 51.8 °F 72% 30.27 in 6.2 mi North 6.9 mph - N/A   Unknown
7:55 PM 59.0 °F 51.8 °F 77% 30.27 in 6.2 mi North 5.8 mph - N/A   Unknown
8:00 PM 59 °F 51 °F 68% 30.29 in 14 mi North 4.5 mph - -   Partly Cloudy
8:25 PM 59.0 °F 51.8 °F 77% 30.27 in 6.2 mi North 4.6 mph - N/A   Unknown
8:55 PM 57.2 °F 51.8 °F 82% 30.30 in 3.7 mi North 2.3 mph - N/A   Haze
9:25 PM 55.4 °F 51.8 °F 88% 30.30 in 6.2 mi Variable 2.3 mph - N/A   Unknown
9:55 PM 55.4 °F 50.0 °F 82% 30.30 in 6.2 mi NNW 3.5 mph - N/A   Mostly Cloudy
10:25 PM 55.4 °F 51.8 °F 88% 30.33 in 6.2 mi NNW 3.5 mph - N/A   Scattered Clouds
10:55 PM 55.4 °F 51.8 °F 88% 30.33 in 6.2 mi NNW 3.5 mph - N/A   Unknown
11:00 PM 56 °F 51 °F 78% 30.34 in 15 mi North 4.5 mph - -   Overcast
11:25 PM 57.2 °F 51.8 °F 82% 30.33 in 6.2 mi North 3.5 mph - N/A   Mostly Cloudy
11:55 PM 57.2 °F 50.0 °F 77% 30.33 in 6.2 mi Variable 2.3 mph - N/A   Overcast